| time (UTC) | temp F | wind direction | speed MPH | gust MPH | rain 1hr in | rain 24hr in | rain mn in | humidity % | barometer mb |
| 20260831054703 | 67 | 136 | 2.0 | 3.0 | 0.00 | 0.00 | 0.00 | 51 | 1023.2 |
| 20260831053204 | 69 | 9 | 0.0 | 6.0 | 0.00 | 0.00 | 0.00 | 47 | 1023.4 |
| 20260831050704 | 69 | 357 | 7.0 | 13.0 | 0.00 | 0.00 | 0.00 | 49 | 1023.5 |
| 20260831050204 | 69 | 0 | 6.0 | 9.0 | 0.00 | 0.00 | 0.00 | 52 | 1023.6 |
| 20260831044704 | 68 | 0 | 1.0 | 3.0 | 0.00 | 0.00 | 0.00 | 58 | 1023.9 |
| 20260831043204 | 67 | 300 | 2.0 | 6.0 | 0.00 | 0.00 | 0.00 | 63 | 1023.6 |
| 20260831041704 | 67 | 237 | 0.0 | 0.0 | 0.00 | 0.00 | 0.00 | 65 | 1023.2 |
| 20260831041204 | 67 | 237 | 0.0 | 0.0 | 0.00 | 0.00 | 0.00 | 65 | 1023.2 |
| 20260831040704 | 67 | 237 | 0.0 | 1.0 | 0.00 | 0.00 | 0.00 | 66 | 1023.2 |
| 20260831034204 | 65 | 193 | 1.0 | 2.0 | 0.00 | 0.00 | 0.00 | 70 | 1022.9 |
| 20260831030204 | 66 | 193 | 0.0 | 0.0 | 0.00 | 0.00 | 0.00 | 67 | 1022.9 |
| 20260831024704 | 66 | 193 | 0.0 | 0.0 | 0.00 | 0.00 | 0.00 | 68 | 1022.6 |
| 20260831024204 | 66 | 193 | 0.0 | 2.0 | 0.00 | 0.00 | 0.00 | 68 | 1022.6 |
| 20260831023704 | 66 | 199 | 1.0 | 3.0 | 0.00 | 0.00 | 0.00 | 68 | 1022.5 |
| 20260831023204 | 66 | 0 | 1.0 | 3.0 | 0.00 | 0.00 | 0.00 | 69 | 1022.5 |
| 20260831021706 | 66 | 0 | 2.0 | 3.0 | 0.00 | 0.00 | 0.00 | 69 | 1022.5 |
| 20260831020205 | 67 | 0 | 0.0 | 2.0 | 0.00 | 0.00 | 0.00 | 65 | 1022.4 |
| 20260831014204 | 68 | 0 | 0.0 | 2.0 | 0.00 | 0.00 | 0.00 | 64 | 1022.3 |
| 20260831011208 | 69 | 0 | 0.0 | 1.0 | 0.00 | 0.00 | 0.00 | 67 | 1022.1 |
| 20260831010704 | 69 | 0 | 3.0 | 6.0 | 0.00 | 0.00 | 0.00 | 66 | 1022.1 |
| 20260831010204 | 69 | 0 | 1.0 | 5.0 | 0.00 | 0.00 | 0.00 | 66 | 1022.1 |
| 20260831003206 | 71 | 0 | 1.0 | 10.0 | 0.00 | 0.00 | 0.00 | 63 | 1022.2 |
| 20260831001704 | 72 | 13 | 3.0 | 8.0 | 0.00 | 0.00 | 0.00 | 62 | 1022.0 |
| 20260831001204 | 72 | 49 | 5.0 | 12.0 | 0.00 | 0.00 | 0.00 | 60 | 1022.0 |
| 20260831000204 | 73 | 110 | 5.0 | 12.0 | 0.00 | 0.00 | 0.00 | 58 | 1021.9 |
| 20260830234704 | 72 | 0 | 5.0 | 14.0 | 0.00 | 0.00 | 0.00 | 60 | 1022.0 |
| 20260830234204 | 71 | 11 | 7.0 | 12.0 | 0.00 | 0.00 | 0.00 | 59 | 1022.0 |
| 20260830224204 | 74 | 165 | 2.0 | 6.0 | 0.00 | 0.00 | 0.00 | 47 | 1022.1 |
| 20260830223704 | 74 | 65 | 0.0 | 2.0 | 0.00 | 0.00 | 0.00 | 45 | 1021.8 |
| 20260830223204 | 73 | 58 | 0.0 | 5.0 | 0.00 | 0.02 | 0.00 | 46 | 1021.9 |
| 20260830220704 | 72 | 347 | 3.0 | 8.0 | 0.00 | 0.02 | 0.00 | 47 | 1022.3 |
| 20260830214705 | 69 | 345 | 6.0 | 12.0 | 0.00 | 0.02 | 0.00 | 52 | 1022.5 |
| 20260830211203 | 70 | 0 | 16.0 | 25.0 | 0.00 | 0.02 | 0.00 | 49 | 1022.6 |
| 20260830210204 | 69 | 0 | 17.0 | 30.0 | 0.00 | 0.02 | 0.00 | 53 | 1022.5 |
| 20260830193205 | 80 | 13 | 4.0 | 10.0 | 0.00 | 0.02 | 0.00 | 40 | 1020.3 |
| 20260830191204 | 82 | 18 | 3.0 | 10.0 | 0.00 | 0.02 | 0.00 | 40 | 1020.4 |
| 20260830190204 | 80 | 4 | 4.0 | 9.0 | 0.00 | 0.02 | 0.00 | 43 | 1020.5 |
| 20260830184704 | 79 | 6 | 4.0 | 9.0 | 0.00 | 0.02 | 0.00 | 41 | 1020.6 |
| 20260830181704 | 78 | 8 | 5.0 | 8.0 | 0.00 | 0.02 | 0.00 | 43 | 1021.0 |
| 20260830180704 | 78 | 3 | 3.0 | 7.0 | 0.00 | 0.02 | 0.00 | 43 | 1021.2 |
| 20260830174704 | 79 | 0 | 5.0 | 8.0 | 0.00 | 0.02 | 0.00 | 41 | 1021.4 |
| 20260830173704 | 78 | 16 | 2.0 | 5.0 | 0.00 | 0.02 | 0.00 | 43 | 1021.6 |
| 20260830173204 | 78 | 2 | 3.0 | 8.0 | 0.00 | 0.02 | 0.00 | 45 | 1021.7 |
| 20260830171204 | 78 | 50 | 4.0 | 8.0 | 0.00 | 0.02 | 0.00 | 45 | 1022.0 |
| 20260830170203 | 78 | 7 | 3.0 | 9.0 | 0.00 | 0.02 | 0.00 | 46 | 1021.8 |
| 20260830164704 | 77 | 20 | 3.0 | 8.0 | 0.00 | 0.02 | 0.00 | 42 | 1021.8 |
| 20260830163704 | 77 | 93 | 2.0 | 3.0 | 0.00 | 0.02 | 0.00 | 42 | 1021.8 |
| 20260830163204 | 77 | 135 | 2.0 | 5.0 | 0.00 | 0.02 | 0.00 | 42 | 1021.9 |
| 20260830161704 | 76 | 130 | 2.0 | 6.0 | 0.00 | 0.02 | 0.00 | 46 | 1021.9 |
| 20260830161204 | 75 | 87 | 1.0 | 3.0 | 0.00 | 0.02 | 0.00 | 45 | 1022.0 |
| 20260830160704 | 74 | 21 | 0.0 | 1.0 | 0.00 | 0.02 | 0.00 | 45 | 1022.1 |
| 20260830160204 | 74 | 19 | 0.0 | 5.0 | 0.00 | 0.02 | 0.00 | 45 | 1022.0 |
| 20260830154704 | 72 | 11 | 2.0 | 5.0 | 0.00 | 0.02 | 0.00 | 52 | 1022.1 |
| 20260830154204 | 73 | 0 | 2.0 | 5.0 | 0.00 | 0.02 | 0.00 | 51 | 1022.1 |
| 20260830153704 | 73 | 0 | 3.0 | 8.0 | 0.00 | 0.02 | 0.00 | 45 | 1022.2 |
| 20260830144704 | 70 | 358 | 2.0 | 3.0 | 0.00 | 0.02 | 0.00 | 52 | 1021.8 |
| 20260830144204 | 70 | 0 | 1.0 | 3.0 | 0.00 | 0.02 | 0.00 | 54 | 1021.7 |
| 20260830143703 | 69 | 0 | 1.0 | 3.0 | 0.00 | 0.02 | 0.00 | 56 | 1021.8 |
| 20260830141204 | 67 | 0 | 1.0 | 3.0 | 0.00 | 0.02 | 0.00 | 54 | 1021.8 |
| 20260830134704 | 65 | 253 | 0.0 | 2.0 | 0.00 | 0.02 | 0.00 | 56 | 1021.8 |
| 20260830134204 | 65 | 351 | 1.0 | 3.0 | 0.00 | 0.02 | 0.00 | 57 | 1021.6 |
| 20260830133704 | 65 | 0 | 2.0 | 5.0 | 0.00 | 0.02 | 0.00 | 57 | 1021.7 |